Tracking 25995 objects as of 19-Aug-2022
HD Live streaming from Space Station
objects crossing your sky now

YUNHAI 2 1

Track YUNHAI 2 1 now!
10-day predictions


NORAD ID: 43909
Int'l Code: 2018-112A
Perigee: 805.9 km
Apogee: 806.5 km
Inclination: 50.0 °
Period: 100.9 minutes
Semi major axis: 7177 km
RCS: Unknown
Launch date: December 29, 2018
Source: People's Republic of China (PRC)
Launch site: Jiuquan Satellite Launch Center, China (JSC)
aabbcc
Your satellite tracking list
Your tracking list is empty




NASA's NSSDC Master Catalog

Two Line Element Set (TLE):
1 43909U 18112A   22230.79466985 -.00000027  00000-0  54007-4 0  9991
2 43909  50.0102 214.1562 0000405 297.6900  62.3971 14.27798490191244
Source of the keplerian elements: AFSPC